TIME,DELAY(SENSOR),PRES,OXYGEN,RAWTEMP,T(OPTODE),TCPHASE,FLUOR,BETA(BETA700),BETA(BETA412),BETA(BETA440),CDOM,C(CSC),ED(ED412.40),ED(ED444.00),ED(ED489.70),ED(ED554.30),LU(LU411.80),LU(LU443.40),LU(LU489.60),LU(LU554.10),COMP,TILTX,TILTY,CHECK
1337744734,5808,876.8099975585938000,42.6843795776367200,661.6649169921875000,4.5731492042541500,54.6139297485351560,54,100,88,80,83,15330,2147755867,2147425051,2148003309,2147876379,2147641874,2147059702,2148260470,2147201334,714,4,14,10723
1337748330,5807,961.3200073242188000,46.7089309692382800,670.1060180664062000,4.2946968078613280,54.1342582702636700,53,100,86,78,84,15331,2147762057,2147418230,2148005330,2147873005,2147644004,2147062765,2148258752,2147198902,1771,4,14,32373
1337751930,5812,974.9899902343750000,48.2655296325683600,672.6901245117188000,4.2092928886413570,53.9429893493652340,53,99,88,79,84,15334,2147760320,2147422921,2148007625,2147874157,2147644946,2147061952,2148262957,2147198948,67,4,13,30567
1337755530,5811,988.9299926757812000,47.9876708984375000,673.2064819335938000,4.1922168731689450,53.9876289367675800,53,98,86,80,83,15331,2147757686,2147424228,2148004553,2147875538,2147643986,2147060041,2148263533,2147201883,35,4,13,2341
1337759130,5809,992.6500244140625000,48.1263389587402340,671.9896850585938000,4.2324490547180180,53.9578704833984400,53,101,92,80,83,15333,2147758902,2147420918,2148004342,2147876854,2147647286,2147058404,2148260297,2147200082,361,4,13,325
1337762730,5811,1000.4799804687500000,47.5595397949218750,672.2429809570312000,4.2240748405456540,54.0416908264160160,53,104,90,79,84,15332,2147758317,2147424347,2148007881,2147874221,2147643172,2147059830,2148258486,2147202596,410,4,13,25093
1337766330,5808,1001.3599853515625000,47.1593093872070300,671.9387817382812000,4.2341289520263670,54.0913200378418000,53,98,85,79,84,15329,2147758299,2147425600,2148005110,2147876269,2147643611,2147058697,2148264630,2147196132,3590,4,14,20549
1337769930,5808,999.5999755859375000,47.2700195312500000,672.6652221679688000,4.2101168632507320,54.0874214172363300,52,98,87,80,84,15330,2147759378,2147422811,2148007222,2147879433,2147644205,2147060370,2148262921,2147198939,823,4,13,37387
1337773530,5806,1006.4799804687500000,47.3346099853515600,672.5159301757812000,4.2150540351867680,54.0765800476074200,53,100,92,78,84,15327,2147759149,2147421760,2148006052,2147878006,2147644178,2147055524,2148258102,2147199945,75,4,13,4793
1337777130,5808,1002.6099853515625000,46.8597297668457000,671.9613037109375000,4.2333869934082030,54.1347389221191400,53,99,90,80,83,15328,2147759990,2147422628,2148009846,2147878345,2147640813,2147058249,2148260068,2147201353,3373,4,14,17524
1337780730,5809,1001.3200073242188000,47.1940002441406250,672.2844238281250000,4.2227058410644530,54.0874595642089840,53,101,91,79,85,15321,2147758080,2147422701,2148008877,2147879734,2147643894,2147059419,2148255698,2147201453,485,4,13,18967
1337784330,5809,1006.3599853515625000,47.3882408142089840,672.7523193359375000,4.2072348594665530,54.0673484802246100,52,100,91,78,84,15324,2147759597,2147423670,2148008219,2147877385,2147643913,2147062134,2148260644,2147198875,3580,4,13,4292
1337787930,5809,1004.0999755859375000,47.4778709411621100,673.3635864257812000,4.1870188713073730,54.0655784606933600,52,99,90,79,84,15326,2147762386,2147420580,2148007478,2147875693,2147646043,2147060864,2148264000,2147198445,3590,4,14,50731
1337791530,5811,1003.0200195312500000,47.8687400817871100,674.3848266601562000,4.1532421112060550,54.0208091735839840,53,100,89,78,83,15325,2147761563,2147418651,2148008283,2147875840,2147641417,2147064310,2148261312,2147198034,100,4,13,14774
1337795130,5808,1008.5800170898438000,48.1526603698730500,674.4619140625000000,4.1506919860839840,53.9799499511718750,53,100,90,80,83,15320,2147759881,2147419776,2148006902,2147874249,2147645046,2147058313,2148261494,2147201307,118,4,13,48882
1337798730,5809,1007.4899902343750000,47.5718383789062500,673.6663208007812000,4.1770100593566895,54.0521583557128900,53,116,91,80,83,15322,2147759725,2147423076,2148006619,2147874368,2147643785,2147053193,2148261714,2147199506,73,5,13,53871
1337802330,5807,1001.5499877929688000,47.4019393920898440,673.3775024414062000,4.1865620613098145,54.0746498107910160,52,100,91,79,84,15325,2147761865,2147424822,2148009051,2147875995,2147643830,2147058706,2148262537,2147199972,700,4,13,13992
1337805930,5811,1009.0499877929688000,47.0745086669921900,672.7285156250000000,4.2080211639404300,54.1154289245605500,53,99,89,79,83,15323,2147757677,2147424749,2148006829,2147874166,2147643739,2147056512,2148262921,2147200676,378,4,13,38366
1337809530,5808,1013.7800292968750000,46.8168792724609400,672.6013183593750000,4.2122268676757810,54.1443901062011700,53,100,89,79,83,15323,2147760192,2147424027,2148009691,2147875373,2147643062,2147062701,2148262729,2147197677,3391,4,13,4726
1337813130,5806,1011.4000244140625000,46.4060096740722660,672.0145874023438000,4.2316269874572750,54.1984291076660160,52,103,93,79,84,15325,2147759579,2147422747,2148008173,2147876562,2147641261,2147058459,2148264859,2147200777,160,4,13,8495
1337816730,5810,1017.6699829101562000,46.9067802429199200,672.0178833007812000,4.2315139770507810,54.1294517517089840,52,101,89,79,83,15322,2147759186,2147422912,2148007451,2147874377,2147641289,2147061330,2148261668,2147197494,699,4,13,22176
1337820330,5806,1006.5200195312500000,46.5809097290039060,672.7327880859375000,4.2078800201416020,54.1837081909179700,53,99,89,79,83,15319,2147757961,2147423734,2148005129,2147875190,2147641408,2147063899,2148257526,2147201737,2796,4,13,64157
1337823930,5814,1009.2100219726562000,46.9377288818359400,672.8701171875000000,4.2033410072326660,54.1366081237793000,51,100,87,80,83,15314,2147761243,2147424091,2148010669,2147878902,2147643017,2147059273,2148259346,2147200694,309,4,13,61187
1337827530,5809,1004.5499877929688000,47.6139106750488300,674.2821044921875000,4.1566390991210940,54.0601501464843750,53,99,88,80,84,15324,2147762742,2147420626,2148007323,2147875812,2147644397,2147059849,2148268809,2147202651,3439,4,13,37634
1337831130,5810,1001.5499877929688000,48.0828590393066400,675.2105102539062000,4.1259207725524900,54.0033302307128900,52,98,86,79,84,15319,2147757723,2147420992,2148007698,2147874404,2147644992,2147059739,2148264566,2147199469,346,4,13,63455
1337834730,5807,1006.9699707031250000,48.2145004272460940,675.4500122070312000,4.1179962158203125,53.9865303039550800,52,99,89,80,84,15324,2147759186,2147421229,2148006171,2147876644,2147644370,2147059419,2148261632,2147198994,3519,4,13,2337
1337838330,5813,1004.2600097656250000,47.8909111022949200,675.1563720703125000,4.1277117729187010,54.0292892456054700,52,102,88,79,83,15321,2147759917,2147422153,2148008758,2147876964,2147642523,2147059309,2148261357,2147202916,82,4,13,21814
1337841930,5808,1010.1799926757812000,48.3247299194335940,674.9915771484375000,4.1331648826599120,53.9628486633300800,52,98,89,80,84,15319,2147761325,2147423241,2148007908,2147875401,2147642340,2147061632,2148262326,2147199771,244,4,14,35792
1337845530,5811,1014.1099853515625000,48.0691909790039060,674.2593994140625000,4.1573910713195800,53.9922485351562500,52,103,89,79,84,15320,2147757202,2147423405,2148007899,2147876086,2147641536,2147061888,2148257792,2147196882,54,4,13,17812
1337849130,5810,1006.6400146484375000,47.0659408569335940,674.0723266601562000,4.1635799407958980,54.1302795410156250,53,101,90,78,83,15319,2147754605,2147422948,2148007579,2147876580,2147644379,2147055497,2148267876,2147196123,231,4,13,63066
1337852730,5808,1017.1300048828125000,47.1976890563964840,674.0006103515625000,4.1659531593322750,54.1148490905761700,52,100,88,79,84,15322,2147758509,2147423670,2148004873,2147877421,2147646089,2147060077,2148265929,2147201453,3524,4,13,37342
1337856330,5805,1019.2700195312500000,46.1983413696289060,672.1265258789062000,4.2279238700866700,54.2304801940918000,53,108,88,79,82,15321,2147760640,2147423780,2148007561,2147876992,2147642368,2147062893,2148260662,2147199250,88,5,13,24503
1337859930,5808,1014.8699951171875000,45.8426589965820300,672.0864257812500000,4.2292518615722660,54.2799682617187500,53,100,90,78,84,15319,2147761353,2147423579,2148007808,2147876004,2147646848,2147058678,2148258596,2147202230,411,4,13,62932
1337863530,5807,1012.9400024414062000,46.4502296447753900,672.6376953125000000,4.2110252380371090,54.2037887573242200,53,101,90,80,84,15321,2147761618,2147421092,2148008932,2147875254,2147644946,2147054829,2148262564,2147195355,605,4,14,54125
1337867130,5807,1010.8099975585938000,46.9202384948730500,673.4213256835938000,4.1851139068603520,54.1435394287109400,52,99,85,80,83,15320,2147760941,2147421376,2148004964,2147874962,2147643163,2147058057,2148263186,2147200621,185,4,13,17215
1337870730,5810,1008.5300292968750000,46.7799415588378900,673.8256225585938000,4.1717410087585450,54.1676788330078100,53,99,86,79,83,15319,2147758162,2147422025,2148007268,2147877275,2147644333,2147058267,2148265051,2147201398,327,4,13,24676
1337874330,5808,1010.8499755859375000,47.7667999267578100,675.5648193359375000,4.1141948699951170,54.0475196838378900,53,99,87,80,83,15320,2147755885,2147422208,2148007734,2147876397,2147644946,2147060333,2148262811,2147201865,3526,4,13,61495
1337877930,5810,1011.2299804687500000,47.4445610046386700,674.6328735351562000,4.1450347900390625,54.0881309509277340,53,97,90,78,82,15319,2147758683,2147422848,2148008109,2147875574,2147643318,2147058669,2148260617,2147202752,47,4,13,27400
1337881530,5808,1005.4899902343750000,47.7211303710937500,675.2756958007812000,4.1237621307373050,54.0540809631347660,54,98,91,80,85,15308,2147758857,2147422262,2148008905,2147876909,2147643602,2147063835,2148259382,2147201188,3576,4,13,7982
1337885130,5811,1010.0599975585938000,48.3138885498046900,675.6657714843750000,4.1108531951904300,53.9755897521972660,53,100,88,80,83,15308,2147759213,2147420525,2148007158,2147873508,2147648466,2147058797,2148257636,2147201097,179,4,13,48615
1337888730,5806,1017.0700073242188000,48.2511901855468750,674.6159057617188000,4.1455960273742680,53.9729881286621100,53,113,87,79,83,15309,2147761142,2147419968,2148007076,2147874953,2147645074,2147057133,2148257042,2147198921,3182,4,13,58997
1337889055,5810,1016.8499755859375000,48.1739807128906250,674.5778808593750000,4.1468510627746580,53.9787406921386700,53,100,90,80,84,15327,2147757019,2147421650,2148011401,2147877394,2147643904,2147061193,2148263817,2147199341,371,4,13,15566
